Theta_e
324 323 323 325 324 324 324 324 324 325 327 328 329 329 330 330 328 318 314 320 320 329 324 319 321 319 319 317 318 314 303 300 302 300 298 302 302 306 311 314 315 318 316 319 325
323 323 323 324 324 324 324 324 324 324 326 327 328 328 329 328 322 317 325 329 330 329 315 315 314 316 311 312 315 309 303 302 309 308 303 307 301 304 310 311 311 315 319 322 324
322 322 323 323 324 324 324 323 323 323 325 326 327 327 327 322 314 313 331 332 330 326 316 316 315 313 309 311 310 309 302 308 311 312 313 307 300 305 307 306 310 311 316 319 320
321 321 322 321 322 323 324 323 323 323 324 325 326 326 324 317 298 314 330 332 331 321 315 313 309 305 305 305 310 306 310 311 312 312 311 309 306 300 306 308 308 311 318 319 319
319 320 320 321 321 322 323 323 323 322 323 324 325 324 318 310 309 320 327 330 325 317 312 311 305 305 301 305 308 306 307 311 311 310 311 310 306 306 301 305 308 313 318 318 320
317 318 319 320 320 321 322 322 322 322 322 324 324 322 313 301 317 321 323 323 320 315 311 312 309 309 305 304 304 307 307 308 310 310 309 307 305 301 305 305 311 315 316 319 320
315 316 318 319 320 320 321 322 322 322 321 324 324 314 308 303 316 320 321 320 320 316 310 313 313 310 308 302 308 306 301 304 306 308 307 305 302 298 305 308 309 314 315 316 318
314 315 315 316 319 319 320 321 321 321 320 321 322 309 301 313 316 318 319 318 320 318 315 315 315 310 305 305 304 301 300 296 303 306 306 306 299 306 305 304 305 310 313 315 317
312 313 315 313 315 318 319 319 319 320 319 319 307 303 298 317 310 314 317 314 316 316 319 318 314 307 304 297 294 298 290 293 298 306 302 303 300 307 309 301 302 305 311 314 315
310 312 313 314 311 318 318 319 319 318 314 312 309 297 300 300 308 312 314 316 312 313 311 311 308 302 300 298 289 289 292 292 294 301 298 295 296 302 304 300 302 302 305 312 314
309 310 312 314 313 315 316 313 304 299 304 296 295 294 298 305 312 309 314 312 310 309 301 306 299 295 298 300 296 293 293 293 296 301 300 298 297 302 304 301 298 299 300 303 312
309 309 310 312 313 312 314 305 302 302 294 299 298 298 302 305 300 305 313 303 303 298 303 299 294 300 301 302 299 297 293 292 296 299 298 297 295 300 302 300 302 303 302 301 302
308 308 309 310 312 309 304 306 307 305 294 295 298 297 299 303 297 301 308 303 300 297 298 295 297 301 300 299 297 297 295 292 292 297 296 294 293 297 300 301 302 302 305 305 305
307 308 308 308 303 303 301 309 307 303 286 288 292 296 300 300 295 304 308 302 299 295 297 297 301 299 298 297 298 293 299 297 295 293 288 295 285 294 297 300 300 302 303 303 303
307 307 307 308 300 298 305 308 308 300 274 289 291 302 299 294 294 299 306 300 294 296 297 293 296 295 296 296 300 294 299 297 296 293 292 290 288 291 295 296 299 303 303 305 306
305 306 307 303 302 303 309 308 301 281 273 285 292 292 292 293 292 299 299 302 298 296 294 295 296 298 297 300 301 302 298 297 296 294 285 291 289 289 294 296 298 302 302 305 307
305 306 304 303 296 305 308 300 282 276 286 283 286 290 289 289 290 291 293 293 290 286 287 290 291 296 300 295 299 298 295 285 284 283 283 291 288 292 295 296 298 300 300 303 305
304 304 303 301 302 306 302 288 277 282 283 287 288 289 285 289 289 290 289 288 293 288 287 285 279 291 297 295 294 294 292 286 281 282 284 287 286 291 299 303 304 303 300 299 300
304 299 298 301 303 303 294 280 280 283 285 286 287 284 284 288 288 288 288 286 290 289 282 283 283 290 294 295 295 294 290 295 285 276 278 284 287 293 294 295 296 297 297 298 299
296 294 294 301 303 296 286 283 281 288 287 288 282 285 281 285 284 285 285 288 287 292 289 286 279 288 291 295 296 294 299 287 288 280 278 281 283 287 290 296 300 299 297 299 299
294 288 295 301 300 289 281 284 283 288 290 285 282 284 283 284 285 285 284 286 290 290 291 288 285 284 290 289 288 290 289 292 290 285 281 276 283 288 293 295 298 301 301 298 298
289 281 297 300 285 284 284 285 289 287 287 285 285 284 284 286 285 284 284 286 291 292 287 288 284 277 283 289 292 292 291 291 285 283 284 281 286 290 294 294 294 297 296 296 296
285 288 298 297 279 281 285 285 288 287 285 285 284 285 288 286 283 284 285 289 291 291 288 290 284 273 278 283 288 288 292 292 292 290 283 283 287 288 288 289 290 291 293 293 294
287 283 289 291 289 284 284 285 285 288 286 286 285 288 285 285 284 283 284 289 291 292 295 294 283 281 278 279 283 283 287 291 291 285 286 287 289 294 287 288 289 291 292 293 292
288 284 288 282 282 287 287 286 284 283 285 286 285 287 285 283 283 281 287 289 292 294 293 291 282 281 284 284 282 284 285 287 287 289 286 290 290 294 296 290 290 291 291 291 292
284 285 290 285 286 287 288 285 285 282 283 282 284 286 285 284 284 283 287 288 288 290 291 287 283 284 280 283 284 282 285 288 289 290 290 291 291 299 297 294 292 292 290 291 292
288 292 291 287 287 285 285 286 285 284 284 287 287 286 284 286 289 290 290 291 290 288 285 285 283 280 275 282 282 279 283 285 287 291 292 288 293 297 297 295 293 294 292 291 292
Wind_Speed
24 23 21 20 21 20 18 17 14 12 9 7 7 8 7 6 5 2 5 7 3 4 5 3 4 3 3 4 3 2 4 2 3 1 3 2 2 1 0 5 2 4 2 0 14
26 25 23 22 21 21 20 18 16 14 10 9 7 7 10 10 6 12 3 9 4 2 2 1 1 2 3 2 3 4 2 10 5 4 1 4 1 3 2 2 3 2 2 7 15
27 27 26 24 22 21 21 19 17 14 13 9 7 8 5 6 4 10 18 15 8 4 1 1 1 2 2 1 4 5 4 3 5 6 1 3 4 2 3 4 7 8 7 13 13
25 27 28 25 24 22 22 21 19 16 14 12 10 8 12 5 11 1 15 24 14 6 3 4 3 3 4 4 3 4 3 2 4 5 5 2 4 5 5 5 2 7 10 14 17
22 27 28 27 26 23 22 21 21 18 15 13 11 8 6 6 12 1 1 12 9 8 8 6 5 5 5 4 4 3 4 3 4 5 5 3 3 5 8 9 5 4 10 16 17
21 23 29 28 26 24 23 22 21 19 16 14 12 11 4 20 7 4 9 8 7 8 8 8 7 5 4 4 5 6 5 3 3 5 4 4 3 3 6 1 3 6 10 11 16
22 21 25 29 27 26 25 23 22 20 18 16 13 5 9 21 2 8 11 8 7 8 6 5 4 6 5 3 5 2 2 3 6 3 4 5 5 9 11 2 6 7 6 8 10
22 20 17 16 28 29 26 24 23 21 19 18 13 4 11 5 3 5 6 5 8 3 4 5 4 2 2 1 3 4 2 4 3 8 5 6 12 5 6 6 10 8 7 8 11
20 21 19 19 18 32 29 26 24 22 20 17 5 6 11 5 15 7 4 7 8 5 4 6 4 3 1 5 1 4 5 6 3 8 4 6 5 10 8 11 12 9 9 10 8
21 20 22 18 12 25 31 27 24 19 15 5 2 6 11 21 7 7 3 5 5 9 7 5 6 6 4 6 17 9 11 3 7 5 6 6 11 8 2 6 14 9 8 8 10
21 21 21 19 19 13 23 18 14 7 22 9 13 5 6 10 7 8 7 5 6 5 12 13 10 18 25 26 3 6 5 11 4 5 6 8 11 15 9 6 7 10 11 11 13
24 22 21 21 21 18 18 24 29 8 22 5 2 15 2 3 7 6 12 14 10 19 10 8 20 28 15 13 15 7 2 4 3 5 5 5 11 14 13 9 14 15 11 12 9
25 22 21 20 19 13 14 27 21 13 9 13 5 14 5 4 5 16 17 11 10 16 20 21 10 17 18 15 19 19 17 6 4 1 2 4 13 19 12 15 15 14 16 12 15
24 24 21 18 12 6 14 24 18 4 8 14 12 6 6 7 4 3 13 12 6 19 13 11 9 9 18 16 22 21 20 13 10 2 8 8 9 12 5 18 17 18 17 18 14
23 24 22 25 3 14 7 25 19 5 11 18 13 8 10 11 9 3 2 3 18 9 8 12 4 17 12 22 17 13 11 16 15 11 6 6 6 5 8 15 14 17 19 20 19
25 23 23 15 12 7 13 22 13 6 9 13 17 16 17 10 4 8 5 4 3 5 3 5 1 4 12 8 12 0 3 9 13 11 12 20 14 10 13 13 14 16 16 19 20
26 24 20 11 14 10 16 19 13 11 11 12 24 24 25 15 12 8 16 15 14 16 16 10 12 3 3 3 11 8 6 6 10 10 10 15 10 23 7 7 10 13 13 17 17
28 25 20 14 10 10 14 17 16 15 13 8 24 25 17 22 13 8 14 14 12 5 9 13 5 16 13 11 3 16 17 8 5 4 11 4 14 11 13 22 22 17 13 7 8
27 14 13 14 12 10 15 20 10 21 8 22 24 26 9 14 11 10 13 14 17 8 8 12 10 3 12 8 15 3 17 5 2 1 3 5 11 7 7 9 11 13 8 14 14
14 14 17 14 13 10 12 16 7 17 12 20 18 18 19 26 15 16 17 14 10 16 2 6 1 5 5 6 7 14 2 5 6 5 5 8 9 8 8 18 20 13 14 12 7
11 13 13 16 14 8 12 9 5 6 20 13 9 14 18 24 19 22 20 3 21 14 5 5 4 1 7 8 11 6 11 8 3 5 5 3 8 9 13 13 14 16 13 8 8
8 9 15 18 14 6 14 10 14 10 6 7 7 5 18 25 17 10 14 8 12 15 19 6 5 4 7 3 2 9 12 15 10 4 3 2 21 4 9 7 3 8 9 5 6
5 7 16 18 15 14 8 9 11 15 7 6 7 4 15 18 10 6 8 3 14 15 19 11 5 3 4 5 1 6 10 12 10 6 6 6 21 4 4 5 6 8 10 6 6
7 9 10 13 11 24 19 18 15 4 7 6 8 20 12 16 5 10 8 1 5 11 10 16 4 7 15 10 3 8 16 11 16 15 20 15 31 18 5 8 5 7 9 8 6
6 5 8 17 17 26 15 22 23 10 4 6 5 19 13 9 5 6 7 6 6 7 6 7 6 5 11 7 3 3 8 19 20 23 17 22 25 27 15 8 8 8 6 7 7
5 7 8 6 22 31 23 18 28 7 6 5 16 16 8 17 12 14 12 7 6 5 11 3 2 1 9 9 9 15 18 13 14 22 21 27 33 24 11 9 9 10 6 9 8
1 2 15 14 20 19 15 22 20 11 6 9 22 15 7 11 13 10 5 9 14 14 5 6 5 3 4 3 2 8 25 27 26 19 19 20 31 20 19 16 9 9 12 15 12
Wind_Direction
228 226 225 225 220 218 216 216 209 215 222 223 218 226 229 217 130 205 226 220 178 15 6 341 22 6 28 86 49 337 90 164 279 252 303 29 275 1 358 123 206 199 170 111 134
229 225 224 223 221 214 212 215 213 204 207 208 211 221 228 151 211 237 201 236 241 55 50 323 0 20 42 84 63 77 172 195 174 162 295 313 301 209 200 142 237 244 71 130 146
233 226 223 220 216 213 211 208 213 203 195 194 200 217 205 140 279 249 197 220 209 182 129 133 79 86 87 250 151 135 213 203 159 108 13 16 341 287 159 232 218 205 161 164 168
242 229 223 221 218 213 211 204 205 201 194 189 185 219 152 147 225 295 209 200 189 163 130 129 128 149 152 184 188 151 229 226 176 125 105 334 300 315 201 253 309 223 156 171 180
245 235 226 219 218 214 211 207 200 200 192 187 183 189 126 212 226 302 15 193 160 147 163 162 155 153 192 183 129 184 200 207 267 167 144 141 243 237 264 256 293 112 158 179 189
243 240 228 221 214 209 206 206 201 194 190 185 188 176 183 228 204 114 91 123 155 152 167 152 187 190 177 193 189 209 191 213 226 270 189 160 234 141 270 310 195 174 196 191 193
245 236 238 218 214 210 205 200 201 190 185 181 190 146 222 220 356 163 141 162 164 180 160 191 157 174 152 166 211 166 212 254 233 180 277 158 236 215 237 155 242 223 210 205 211
237 236 214 244 214 209 202 196 195 191 184 181 178 127 231 188 182 159 151 120 143 159 133 174 96 134 215 203 75 140 158 236 232 170 230 212 249 225 228 184 238 232 222 218 211
235 230 220 207 239 210 198 190 191 191 180 175 118 163 225 98 203 202 149 147 125 108 108 118 136 166 8 137 76 212 225 205 288 191 136 201 254 252 202 188 234 228 225 220 223
236 228 228 220 224 228 192 183 182 185 172 119 138 92 259 217 160 198 135 153 134 133 159 179 168 183 162 180 218 205 213 207 196 204 167 214 257 265 252 216 224 225 230 220 225
233 226 226 222 213 215 191 178 169 178 176 186 189 158 318 150 128 171 155 129 152 184 201 191 201 203 214 210 11 131 163 210 202 199 169 221 245 253 252 225 256 246 233 229 224
233 222 225 219 214 207 210 196 184 159 174 159 279 212 37 150 146 159 154 186 178 211 195 203 219 215 217 212 222 240 176 214 226 192 195 226 255 269 251 235 225 235 237 230 235
224 219 218 222 215 216 222 192 160 137 159 187 156 201 164 157 166 181 175 175 193 205 214 229 231 219 209 220 205 224 229 197 224 205 260 351 270 260 248 236 232 229 238 240 227
225 216 212 213 226 173 229 162 175 184 170 160 189 212 177 145 181 159 192 169 201 209 211 228 240 188 227 226 210 225 216 230 225 206 244 168 274 254 239 232 223 229 226 233 229
221 214 211 204 203 194 183 162 175 0 210 157 161 140 149 168 142 181 161 148 198 174 165 204 112 211 223 222 207 241 191 200 217 234 259 228 272 243 221 237 239 231 226 226 222
218 212 207 209 220 214 164 152 149 208 202 161 147 162 151 179 164 132 158 89 114 165 183 190 91 169 240 218 221 305 163 188 215 213 230 227 213 217 224 218 247 243 230 229 229
216 210 203 200 215 184 172 161 187 202 166 137 161 158 169 169 157 163 177 181 179 189 203 206 222 146 120 260 213 236 189 188 209 214 226 200 211 240 231 225 228 240 233 229 224
209 205 210 210 200 169 198 167 208 142 179 174 158 159 172 154 182 166 165 184 208 154 193 199 221 181 174 197 174 220 226 227 231 216 222 109 223 240 229 231 243 240 244 247 234
208 205 206 203 189 186 196 203 185 148 165 153 142 161 146 167 137 159 183 195 195 182 155 190 230 118 182 156 178 167 212 172 118 335 16 194 273 285 241 258 253 255 232 242 232
201 196 204 182 179 199 207 204 136 155 150 144 143 175 168 173 158 170 169 195 196 193 200 189 156 192 150 111 206 231 266 164 206 250 232 228 259 223 216 220 235 237 238 246 224
189 199 185 175 173 196 217 183 133 166 137 147 133 158 177 171 177 180 183 190 190 174 139 141 116 328 119 180 171 184 230 241 155 221 188 265 259 202 199 216 227 237 242 244 246
181 191 157 155 185 216 197 163 145 138 80 94 89 79 166 174 169 164 183 187 178 149 189 181 130 171 196 62 75 210 216 220 250 247 220 188 268 191 225 232 270 271 283 253 228
157 169 155 158 196 199 147 151 137 139 127 148 125 146 154 159 156 149 139 178 169 166 163 155 202 99 3 354 107 205 223 228 224 247 208 243 257 198 225 278 244 256 270 276 249
186 142 154 177 188 197 139 143 136 67 69 75 110 120 114 152 28 159 131 139 157 173 133 152 123 195 225 216 144 200 228 227 234 241 252 236 264 253 278 244 245 258 264 277 243
204 130 145 176 205 168 137 146 141 146 71 135 101 146 138 145 96 142 116 111 73 170 119 140 208 183 251 262 348 304 262 228 218 233 242 255 256 260 255 272 253 252 241 271 281
155 123 149 112 156 151 146 165 159 107 146 166 146 152 133 155 173 166 148 148 152 77 164 57 158 125 269 277 246 261 271 275 250 242 240 247 258 254 283 242 241 270 281 256 242
355 103 140 156 147 136 151 156 153 126 26 117 129 116 101 160 139 133 122 128 146 153 124 127 111 106 245 55 94 269 238 238 237 231 213 231 238 261 249 244 243 255 243 240 219